Regional Weather Roundup
Issued by NWS

Home | Current Version | Previous Version | Text Only | Print | Product List | Glossary On
Versions: 1 2 3 4 5 6 7 8 9 10 11 12 13 14 15 16 17 18 19 20 21 22 23 24 25 26 27 28 29 30 31 32 33 34 35 36 37 38 39 40 41 42 43 44 45 46 47 48 49 50
000
ASUS43 KDTX 300910
RWRMI
MICHIGAN HOURLY REGIONAL WEATHER ROUNDUP
NATIONAL WEATHER SERVICE DETROIT/PONTIAC MI
500 AM EDT THU JUL 30 2015

NOTE: "FAIR" INDICATES FEW OR NO CLOUDS BELOW 12,000 FEET WITH NO
SIGNIFICANT WEATHER AND/OR OBSTRUCTION TO VISIBILITY.

MIZ047>049-052>055-059>063-066>070-074>076-081>083-301000-
SOUTHEAST LOWER MICHIGAN

CITY           SKY/WX    TMP DP  RH WIND       PRES   REMARKS
ADRIAN         CLEAR     63  57  81 W3        29.96S
ALMA           CLEAR     63  58  84 SW6       29.92S
ANN ARBOR      CLEAR     63  57  81 W7        29.94S
BAD AXE        PTCLDY    60  57  89 CALM      29.88S
CARO           PTCLDY    61  57  86 SW3       29.89S
DETROIT CITY   PTCLDY    68  57  68 W7        29.92R
DETROIT        MOCLDY    65  58  78 W5        29.93S
FLINT          CLEAR     67  57  70 W7        29.92S
GROSSE ILE     PTCLDY    66  59  77 W6        29.92S
HILLSDALE      CLEAR     65  59  79 W7        29.98S
HOWELL         CLEAR     63  57  82 W5        29.94R

CITY           SKY/WX    TMP DP  RH WIND       PRES   REMARKS
JACKSON        CLEAR     62  56  80 W6        29.96S
LAMBERTVILLE   CLEAR     65  59  79 CALM      29.95S
LANSING        CLEAR     66  57  72 W8        29.94S
LAPEER         FAIR      65  57  77 W3        29.91S
MASON          CLEAR     63  56  77 W5        29.95S
MONROE         PTCLDY    62  59  90 W5        29.93S
MT. CLEMENS    PTCLDY    66  58  74 W9        29.89R
PONTIAC        CLEAR     66  58  75 W9        29.92S
PORT HOPE        N/A     65  60  84 SW7       29.84S
PORT HURON     CLEAR     57  57 100 CALM      29.90R
TRI CITIES     CLEAR     64  57  78 SW7       29.90S
MIDLAND        FAIR      64  56  73 W5        29.88F
TROY           CLEAR     69  59  71 MISG      29.93S
SAGINAW HB     CLEAR     63  59  88 SW7       29.89S
$$
MIZ043>046-050>051-056>058-064>065-071>073-077>080-301000-
SOUTHWEST LOWER MICHIGAN

CITY           SKY/WX    TMP DP  RH WIND       PRES   REMARKS
BATTLE CREEK   CLEAR     65  57  75 W6        29.97S
BENTON HARBOR  CLEAR     70  62  76 W9        29.98S
BIG RAPIDS     CLEAR     66  55  68 W7        29.91S
COLDWATER      CLEAR     60  56  86 W5        29.98S
FREMONT        FAIR      67  56  70 W6        29.92S
HOLLAND        CLEAR     72  59  63 W8        29.96S
GRAND RAPIDS   CLEAR     66  59  78 SW7       29.95S
IONIA          FAIR      63  58  82 W7        29.93S
KALAMAZOO      CLEAR     67  57  70 W8        29.97S
LUDINGTON      CLEAR     71  62  72 W9        29.91R
MARSHALL       CLEAR     62  57  83 CALM      29.96S
MOUNT PLEASANT CLEAR     67  57  71 SW6       29.89S
MUSKEGON       CLEAR     72  43  35 W15G25    29.94R
SOUTH HAVEN    CLEAR     71  61  71 W7        29.97S
$$
MIZ016>042-301000-
NORTHERN LOWER MICHIGAN

CITY           SKY/WX    TMP DP  RH WIND       PRES   REMARKS
ALPENA         CLEAR     67  55  65 SW6       29.80F
BEAVER ISLAND  CLEAR     68  60  74 W15       29.79S
BELLAIRE       CLEAR     73  57  57 W8G17     29.83R
CADILLAC       CLEAR     64  56  75 W6        29.89S
CHARLEVOIX     CLEAR     70  62  75 W15G21    29.83S
FRANKFORT      CLEAR     70  60  70 NW12G17   29.87S
GAYLORD        CLEAR     65  57  75 SW8       29.84S
GRAYLING       CLEAR     64  56  76 SW5       29.87R
HARBOR SPRINGS CLEAR     69  64  82 W9G16     29.79S
HOUGHTON LAKE  CLEAR     68  57  68 W9        29.87S
MANISTEE       CLEAR     70  55  60 W15       29.88S
OSCODA         CLEAR     64  56  75 SW8       29.83S
PELLSTON       CLEAR     70  59  68 W10       29.79S
ROGERS CITY    CLEAR     68  58  70 SW9       29.79F
TRAVERSE CITY  CLEAR     73  56  54 W12       29.83S
$$
MIZ007>008-015-301000-
EASTERN UPPER MICHIGAN

CITY           SKY/WX    TMP DP  RH WIND       PRES   REMARKS
KINROSS        CLEAR     66  59  77 W9        29.74S
MACKINAC ISLAN CLEAR     70  59  67 W16G22    29.76S
MUNISING         N/A     69  54  58 VRB7      29.75S
$$
MIZ004>006-011>014-085-301000-
CENTRAL UPPER MICHIGAN

CITY           SKY/WX    TMP DP  RH WIND       PRES   REMARKS
MANISTIQUE     CLEAR     68  54  60 W7        29.77S
ESCANABA       CLEAR     66  54  63 W10       29.80S
MENOMINEE      CLEAR     64  54  68 W7        29.86R
SAWYER-GWINN   CLEAR     65  52  64 W9        29.79S
$$
MIZ001>003-009>011-084-301000-
WESTERN UPPER MICHIGAN

CITY           SKY/WX    TMP DP  RH WIND       PRES   REMARKS
IRON MOUNTAIN  CLEAR     65  53  65 W6        29.84R
HOUGHTON       PTCLDY    68  53  58 W25G36    29.73S
COPPER HARBOR    N/A     70  52  52 NW12G28   29.69S
IRONWOOD       CLEAR     64  54  68 W14       29.84S
$$

ABBREVIATIONS USED IN REMARKS
   TC - TEMPERATURE IN CELSIUS
  WCI - WIND CHILL INDEX
   HX - HEAT INDEX
  VSB - VISIBILITY




USA.gov is the U.S. government's official web portal to all federal, state and local government web resources and services.